カタログに戻る

COSMOS 2155

運用中ナビゲーションGEO
NORAD 21702·PAYLOAD·🇷🇺 Russia

打ち上げ Sep 13, 1991 から Baikonur Cosmodrome

Loading…

TLE

最新Source: Space-Track

元期: Sep 14, 2026, 13:00 UTC

1 21702U 91064A   26257.54221831  .00000019  00000-0  00000-0 0  9990
2 21702  13.0490 338.6278 0004021 244.5599 145.8931  1.00243142128237

AllMySatでCOSMOS 2155をリアルタイム追跡

Download on the App Store